Temperature
17 17 18 18 14 12 13 14 14 13 13 13 13 13 12 11 12 12 11 11 12 12 12 12 12 12 12 12 12 12 12 13 13 13 13 13 13 13 13 14 14 14 14 14 14 14 14 14 14
17 17 17 17 12 13 13 13 13 13 13 12 12 12 11 11 11 11 11 11 11 11 12 12 12 12 12 12 12 12 12 12 12 13 13 13 13 13 13 13 13 13 13 14 14 14 14 14 14
17 17 17 12 12 12 14 14 12 12 12 12 11 11 11 10 11 10 10 11 11 11 11 11 12 12 12 12 12 12 12 12 12 12 12 12 12 13 13 13 13 13 13 13 13 13 13 13 13
16 17 15 11 13 12 13 13 12 11 12 12 11 10 10 10 10 10 10 10 11 11 11 11 11 11 11 11 11 12 12 12 12 12 12 12 12 12 12 13 13 13 13 13 13 13 13 13 13
16 16 12 11 12 12 12 12 12 11 11 11 11 9 9 10 10 10 10 10 10 10 11 11 11 11 11 11 11 11 11 11 12 12 12 12 12 12 12 12 12 12 13 13 13 13 13 13 13
16 12 11 11 12 12 12 12 12 11 10 10 10 9 9 10 10 10 10 10 10 10 10 10 10 11 11 11 11 11 11 11 11 11 11 12 12 12 12 12 12 12 12 12 12 12 12 12 12
14 10 11 12 12 12 12 12 11 10 9 10 10 9 8 9 9 10 9 9 10 10 10 10 10 10 10 10 11 11 11 11 11 11 11 11 11 11 11 12 12 12 12 12 12 12 12 12 12
15 10 11 11 12 12 12 12 11 11 10 10 11 9 8 9 9 9 9 9 9 9 10 10 10 10 10 10 10 10 10 10 11 11 11 11 11 11 11 11 11 11 11 12 12 12 12 12 12
14 10 10 11 11 12 11 11 10 11 10 10 10 10 10 10 9 9 9 9 9 9 9 9 9 9 10 10 10 10 10 10 10 10 10 10 11 11 11 11 11 11 11 11 11 11 11 11 11
13 10 11 11 11 11 11 11 10 9 8 8 9 9 9 9 9 9 9 9 9 9 9 9 9 9 9 9 9 9 9 9 9 10 10 10 10 10 10 10 10 10 10 11 11 11 11 11 11
10 10 11 11 12 11 10 10 10 9 8 8 9 9 9 9 9 9 9 8 8 8 8 8 8 8 9 9 9 9 9 9 9 9 9 9 9 10 10 10 10 10 10 10 10 10 10 10 11
10 10 10 11 11 11 10 10 9 8 10 10 10 10 9 9 8 8 8 8 8 8 8 8 8 8 8 8 8 8 8 8 8 9 9 9 9 9 9 9 9 9 10 10 10 10 10 10 10
9 10 10 10 11 10 10 8 8 8 9 10 10 9 9 9 8 8 8 8 8 8 8 8 8 7 8 8 8 8 8 8 8 8 8 8 8 8 8 9 9 9 9 9 9 9 9 9 9
9 9 9 10 10 9 8 8 7 8 9 9 9 9 8 8 8 8 8 7 7 7 7 7 7 7 7 7 7 7 7 7 7 7 7 7 8 8 8 8 8 8 8 8 8 9 9 9 9
10 9 9 9 9 9 9 8 6 8 8 8 8 8 8 8 7 8 8 7 7 7 7 6 6 6 6 6 6 7 7 7 7 7 7 7 7 7 7 7 7 8 8 8 8 8 8 8 8
9 9 9 9 8 8 9 8 7 8 7 6 6 7 7 7 7 7 7 7 7 6 6 6 6 6 6 6 6 6 6 6 6 6 6 6 6 6 6 7 7 7 7 7 7 7 8 8 8
8 8 8 8 7 7 7 7 6 6 6 5 5 6 6 6 6 6 6 6 6 6 6 6 6 5 5 5 5 5 5 5 5 5 5 5 5 6 6 6 6 6 6 6 6 7 7 7 7
7 7 7 8 7 6 6 5 6 5 5 4 5 5 5 5 6 6 6 6 5 5 5 5 5 5 5 5 5 5 5 5 5 5 5 5 5 5 5 5 5 5 5 6 6 6 6 6 6
8 7 7 7 7 6 5 5 6 4 4 3 4 4 4 5 6 5 5 5 5 5 5 5 5 4 4 4 4 4 4 4 4 4 4 4 4 4 4 4 5 5 5 5 5 5 5 5 5
8 7 7 7 6 6 5 5 5 4 3 4 4 4 4 4 4 4 4 4 4 4 4 4 4 4 4 4 4 4 4 4 4 4 4 4 4 4 4 4 4 4 4 4 4 4 4 4 4
7 7 7 7 6 6 5 5 5 4 4 4 4 4 5 5 5 4 4 4 4 4 4 4 4 3 3 3 3 3 3 3 3 3 3 3 3 3 3 3 3 3 3 3 3 3 3 3 3
7 6 7 6 6 5 5 5 5 4 3 3 3 3 4 5 5 4 4 4 4 4 4 3 3 3 3 3 3 2 2 2 3 3 2 2 2 2 3 3 3 3 3 3 3 3 2 2 3
6 6 6 6 5 4 4 4 5 4 4 4 3 4 4 5 4 4 4 4 4 4 3 3 3 3 2 2 2 2 2 2 2 2 2 2 2 2 2 2 2 2 2 2 2 2 2 2 2
5 5 4 4 4 4 4 4 5 3 4 4 4 4 4 4 4 4 4 4 3 3 3 2 2 2 2 2 1 1 1 1 1 1 1 1 1 1 1 1 1 1 1 1 1 1 1 1 1
5 5 5 5 4 4 4 4 4 4 3 4 4 4 4 4 4 3 3 3 3 2 2 2 2 2 2 1 1 1 1 1 1 1 1 1 1 1 1 1 0 0 1 1 1 1 1 1 0
4 5 5 5 4 4 3 3 4 3 2 3 3 3 3 3 3 3 3 2 2 2 2 2 1 1 1 1 1 0 0 0 0 -0 -0 -0 -0 -0 -0 -0 -0 -0 -0 0 0 0 0 -0 -0
4 4 4 4 3 3 3 2 2 2 2 2 1 2 2 3 3 2 2 2 2 2 2 1 1 1 1 0 0 0 -0 -0 -0 -1 -1 -1 -1 -1 -1 -1 -1 -1 -1 -1 -1 -1 -1 -1 -1
4 3 3 3 4 4 4 3 3 3 3 2 1 0 1 2 2 2 1 1 1 1 1 1 1 0 0 0 -0 -0 -1 -1 -1 -1 -1 -1 -1 -1 -1 -1 -2 -2 -2 -2 -1 -1 -1 -1 -1
3 3 3 2 2 3 3 4 3 3 2 1 0 1 1 1 1 1 1 1 0 0 0 0 -0 -0 -0 -0 -1 -1 -1 -1 -1 -1 -1 -2 -2 -2 -2 -2 -2 -2 -2 -2 -2 -2 -2 -2 -2
3 3 2 3 2 1 2 3 2 1 1 0 -0 1 1 1 1 1 1 0 -0 -0 -0 -0 -1 -1 -1 -1 -1 -1 -1 -2 -2 -2 -2 -2 -2 -2 -2 -3 -3 -3 -3 -3 -3 -3 -3 -3 -3
Wind_Speed
6 3 3 4 6 5 2 3 2 2 2 1 2 4 6 5 4 3 1 2 3 3 4 5 8 10 10 11 11 11 11 11 12 12 13 12 12 12 12 13 13 13 14 14 14 14 14 14 14
2 2 5 5 5 1 4 4 4 3 4 4 4 4 5 2 2 3 1 2 4 5 6 7 10 11 11 11 11 11 11 12 12 12 12 12 12 12 12 12 13 13 13 13 14 14 14 13 14
1 4 5 5 4 6 5 3 5 3 4 3 4 4 3 2 2 2 0 2 5 7 7 8 10 11 11 11 11 11 11 11 11 12 12 12 12 12 12 12 12 13 13 13 13 13 13 13 13
3 5 5 4 4 5 4 3 5 6 3 3 5 4 2 2 1 1 3 4 6 7 8 8 11 11 11 11 11 11 11 11 11 11 11 11 11 12 12 12 13 13 13 13 13 13 13 13 13
4 5 4 1 3 3 2 2 6 5 5 3 5 5 2 2 2 4 5 5 6 6 8 9 10 10 10 10 11 11 11 12 12 11 11 11 11 12 12 12 12 13 12 12 12 13 13 13 13
5 5 4 4 5 3 2 3 5 4 3 3 5 5 2 1 3 4 5 5 6 7 8 8 9 10 10 10 10 11 12 12 12 11 11 11 11 11 11 12 13 12 12 12 12 12 12 12 13
5 5 5 5 4 3 3 4 5 5 4 4 5 6 2 1 3 5 5 6 7 9 9 9 9 9 9 10 10 11 11 12 12 12 12 12 11 11 11 11 12 12 11 12 12 12 12 12 13
5 5 3 4 5 5 3 4 3 5 4 3 5 6 4 4 4 5 6 6 6 7 8 9 9 10 10 9 10 11 11 11 12 12 12 12 13 12 11 11 11 11 11 12 12 12 12 12 12
4 4 4 6 7 4 3 4 2 3 6 3 1 1 2 9 8 7 5 5 5 5 5 7 8 9 10 9 9 10 11 11 12 11 12 12 12 12 11 11 11 11 11 12 12 12 12 12 12
4 4 7 4 5 4 4 4 6 5 3 2 1 3 6 9 9 8 6 5 4 3 3 5 6 7 8 8 9 10 10 10 11 11 11 11 11 11 11 11 12 11 11 11 12 12 12 11 11
4 5 3 2 2 3 4 3 5 7 4 6 7 7 9 9 9 8 7 6 4 3 3 3 5 6 7 7 7 8 9 9 10 10 10 11 11 10 10 10 10 10 10 10 10 11 11 10 9
3 2 1 1 1 2 3 4 3 4 4 2 7 11 12 12 11 10 8 6 4 4 2 2 4 5 6 7 6 7 7 7 7 8 9 9 8 8 9 8 9 9 8 8 9 9 9 10 10
3 2 1 1 2 2 3 3 3 3 1 4 9 11 11 11 9 6 6 5 4 4 3 2 3 4 5 6 5 6 6 6 7 7 8 8 7 6 7 7 8 8 8 8 7 8 8 8 8
3 2 1 1 1 1 3 1 1 4 4 7 9 10 10 10 9 7 6 6 5 4 3 2 3 4 5 5 5 4 5 6 6 7 7 7 7 6 6 6 7 7 7 7 7 7 6 6 6
3 2 1 1 2 2 3 3 6 4 6 7 7 8 8 7 7 9 8 7 6 5 4 3 3 4 5 4 4 5 5 6 6 5 6 7 7 7 6 5 5 6 6 7 7 7 6 5 6
3 2 2 3 3 2 4 9 5 5 8 7 7 7 7 7 8 7 6 6 5 5 4 3 3 3 4 4 5 5 5 5 5 5 6 6 7 7 6 5 4 6 6 6 5 4 3 4 3
1 2 5 4 3 3 5 8 3 4 7 7 7 7 7 6 6 6 6 6 6 6 5 4 4 4 3 4 5 5 5 5 5 5 5 6 6 6 6 5 4 5 6 5 4 3 3 3 3
5 4 4 6 3 4 5 8 6 4 6 7 6 6 7 8 9 7 7 6 6 6 5 5 4 4 4 4 4 4 4 4 4 4 4 5 5 5 5 5 5 5 4 4 3 3 3 2 2
5 5 6 5 2 4 7 10 10 5 6 7 7 7 8 9 6 6 6 6 6 5 5 5 5 4 4 2 2 2 1 1 2 3 4 4 4 5 5 4 5 5 3 3 3 2 2 3 3
4 5 5 3 0 3 5 10 9 6 7 8 9 10 10 7 5 6 7 7 8 7 7 6 6 5 5 3 2 1 2 1 1 2 4 4 4 4 4 4 3 3 3 3 3 3 1 2 3
6 7 6 4 2 1 3 8 7 5 5 6 7 8 8 10 10 9 9 9 8 8 8 7 7 6 5 4 3 3 3 2 2 2 2 4 4 4 4 4 4 3 3 2 3 2 2 1 2
7 5 5 4 2 4 2 6 7 5 6 7 8 8 9 9 9 9 10 10 10 9 8 7 7 6 6 5 5 5 2 1 1 0 1 2 3 4 4 4 4 3 3 2 2 2 1 1 1
4 2 3 3 4 3 3 5 9 2 6 9 9 10 10 9 10 11 11 11 9 8 8 7 7 6 6 6 6 5 3 1 1 1 1 1 2 3 3 4 4 3 2 2 2 2 2 1 0
4 4 4 4 3 5 7 7 9 5 7 7 7 8 8 8 8 8 8 7 6 6 7 7 7 6 6 6 5 5 5 4 3 1 1 0 1 2 2 3 3 2 2 2 1 1 1 1 0
4 4 1 2 2 7 4 6 10 6 6 6 7 6 6 6 7 7 8 8 8 8 8 7 8 6 6 6 5 5 5 5 5 3 2 1 0 1 1 1 1 1 1 1 1 1 1 1 0
5 6 6 6 6 5 2 8 8 4 3 4 4 4 3 4 5 7 8 9 9 9 8 8 8 6 6 6 5 4 4 4 3 3 2 2 2 2 1 1 0 0 0 1 1 1 1 0 1
5 5 4 4 1 4 7 7 8 2 3 3 2 1 2 3 4 5 6 7 8 8 8 9 8 6 6 6 5 4 4 4 3 2 2 2 1 1 1 1 1 1 1 0 0 0 1 1 1
3 6 4 4 4 6 6 6 5 5 5 4 3 3 3 2 2 3 4 5 6 7 6 6 7 7 6 5 5 4 3 3 3 3 2 2 1 1 1 1 1 1 1 1 1 1 1 1 2
5 4 4 4 4 5 5 7 4 5 4 4 5 4 3 2 3 3 3 4 4 5 5 5 5 5 5 4 4 4 3 3 3 2 2 2 2 2 2 2 2 2 2 2 1 2 2 2 3
5 6 7 5 6 5 4 7 2 2 2 2 3 3 2 1 2 3 3 4 5 5 5 5 5 5 4 4 4 3 3 3 2 2 2 2 2 2 3 2 2 2 2 2 3 3 3 3 4
Wind_Direction
344 20 75 59 58 57 211 239 191 162 155 108 104 120 136 135 148 159 73 43 50 60 61 73 83 82 79 74 72 70 70 69 68 67 67 68 68 66 65 63 60 58 58 57 57 57 59 60 62
352 49 57 63 96 140 255 232 194 191 157 116 69 80 98 97 54 94 84 24 61 67 67 76 82 80 78 75 72 68 67 68 69 68 66 67 68 67 66 64 61 58 57 57 58 57 58 58 59
68 51 82 82 128 182 218 215 187 117 110 115 97 64 110 125 121 140 134 95 70 62 69 83 86 82 77 74 71 68 68 68 67 67 66 66 67 67 66 64 62 59 57 57 57 58 57 57 58
79 50 59 87 191 217 215 213 162 132 102 77 121 106 84 35 137 145 110 94 80 59 66 83 84 82 79 75 71 67 66 66 65 64 63 63 64 66 66 64 61 58 58 58 56 56 56 56 58
60 80 78 92 229 244 241 189 151 147 157 129 130 132 121 8 65 104 108 93 91 64 63 79 83 81 80 76 72 68 65 64 64 63 61 63 63 62 63 63 60 57 55 55 54 54 54 54 56
62 76 113 205 234 249 242 174 144 137 139 129 133 136 157 79 109 113 107 96 85 76 65 72 81 81 79 75 73 68 65 63 62 60 59 60 61 60 61 58 55 55 54 55 53 52 52 54 57
115 116 169 190 213 241 222 152 149 148 154 178 157 139 164 162 132 116 101 90 79 74 66 59 64 72 76 74 72 68 66 64 61 59 58 58 60 61 59 56 54 52 52 53 54 52 52 52 54
129 120 154 193 198 233 192 146 145 144 160 132 139 152 193 189 140 110 96 86 78 66 62 59 61 62 62 69 70 66 65 65 63 59 58 58 55 55 57 54 51 50 50 50 52 53 53 51 51
98 100 191 205 194 218 161 144 90 87 109 110 117 169 167 135 130 113 95 79 77 71 58 60 62 63 64 66 66 64 63 63 61 59 58 58 55 50 49 51 50 47 47 49 49 49 50 50 47
105 169 212 206 188 183 167 166 155 125 120 159 123 72 114 131 141 140 136 135 122 98 73 60 65 64 67 67 66 64 62 63 63 62 60 60 58 52 48 47 46 46 46 46 44 46 46 46 43
150 189 209 216 168 148 152 154 154 143 191 205 191 165 147 147 154 158 158 157 152 137 97 70 69 73 74 71 70 69 69 68 66 63 61 62 61 56 51 48 42 40 42 43 39 42 43 43 43
158 230 186 214 136 143 159 151 153 181 213 202 165 152 154 161 171 174 170 164 153 136 115 91 78 80 80 81 77 76 72 70 66 63 62 63 59 52 49 47 41 40 42 43 42 41 39 41 41
181 212 154 95 100 113 116 141 176 229 237 103 125 144 161 170 174 172 160 151 147 143 133 116 92 90 87 85 80 77 76 74 73 70 63 65 64 55 51 48 44 39 42 43 43 41 38 37 36
182 164 149 70 113 118 145 214 185 242 151 127 140 160 172 177 172 161 159 163 165 161 151 130 109 101 96 86 81 80 82 82 80 72 65 67 68 62 54 48 43 37 38 42 45 44 41 37 36
115 104 345 249 159 175 132 277 230 207 146 150 164 172 177 183 176 178 179 176 174 169 153 142 130 104 97 91 91 88 83 83 77 73 69 68 69 65 58 50 38 32 39 44 44 42 43 38 33
85 95 262 257 168 179 163 251 251 170 158 177 183 184 187 192 191 187 178 170 165 159 154 154 137 113 98 95 95 91 87 81 74 76 73 68 66 67 63 53 35 30 41 44 43 31 34 29 21
69 214 241 266 194 152 183 242 251 166 175 194 198 197 195 198 201 195 181 172 166 163 160 154 137 132 108 98 98 91 84 74 71 72 73 69 66 66 67 55 40 39 44 40 35 32 23 20 15
213 217 234 240 222 162 210 245 249 191 195 211 209 205 202 206 210 197 183 173 164 161 158 154 141 130 108 98 94 81 71 61 60 60 64 68 67 63 65 58 43 44 46 34 31 27 28 17 3
174 194 235 247 195 185 227 252 256 219 211 223 218 212 214 219 211 185 178 168 161 161 160 158 149 147 135 128 124 111 83 52 42 47 51 62 66 63 62 56 46 42 43 34 25 25 28 15 358
202 224 246 283 194 207 259 268 260 221 214 218 216 216 217 213 196 187 180 175 177 178 174 167 164 161 159 157 144 123 116 98 53 46 46 48 55 60 61 61 53 46 47 36 25 28 23 4 17
228 221 228 247 345 284 311 290 253 239 215 222 220 217 213 207 203 195 189 188 185 185 183 179 174 168 162 140 114 94 72 52 43 28 22 24 43 55 64 65 63 52 54 42 26 28 50 17 1
240 224 211 212 224 266 203 281 271 236 238 233 230 222 221 215 205 197 192 192 193 192 183 177 174 169 162 150 149 146 144 154 214 291 13 28 46 53 57 63 64 58 55 40 23 34 30 64 354
212 174 177 197 196 267 226 243 278 225 250 245 233 226 224 215 206 200 197 196 193 184 180 178 173 170 167 164 162 156 146 133 107 92 88 31 34 51 55 59 61 57 51 44 38 31 29 40 164
138 77 66 62 99 258 219 205 272 227 227 242 232 226 222 213 207 202 194 186 183 176 174 173 172 175 172 169 166 164 158 146 134 127 124 45 0 22 42 58 60 53 51 41 33 38 33 26 82
120 107 36 324 249 248 185 213 252 246 225 230 237 234 225 210 201 195 186 185 184 179 179 176 174 178 177 172 172 172 168 165 168 175 177 181 257 294 306 22 36 32 34 35 48 46 3 340 284
185 165 179 215 233 272 223 236 257 257 271 275 259 239 229 214 205 199 194 189 185 182 180 177 177 180 179 177 178 174 170 171 177 180 186 197 218 244 245 238 248 298 6 26 58 49 318 331 279
162 202 175 153 212 260 256 273 293 264 303 306 305 290 252 229 210 199 190 186 182 182 184 180 175 174 177 177 173 173 175 174 179 181 182 199 217 244 238 225 245 265 266 259 187 278 276 266 261
158 151 130 163 209 252 271 262 255 269 275 287 303 291 275 246 203 191 183 181 181 181 179 174 174 176 175 172 174 175 177 178 177 176 192 205 225 241 233 245 246 255 253 247 248 271 266 263 267
151 161 169 174 193 202 264 268 232 229 242 260 268 271 262 232 204 193 181 171 166 160 162 166 171 168 167 171 171 166 173 171 168 185 201 208 223 228 231 244 246 250 255 252 252 261 257 263 268
189 185 164 187 228 210 230 268 283 240 267 252 266 276 272 217 188 176 164 152 151 155 162 167 171 172 174 169 164 168 172 171 175 196 212 212 228 237 235 237 244 247 248 249 248 258 259 257 259
Height
1500 1501 1502 1504 1509 1522 1524 1518 1515 1516 1516 1516 1517 1518 1521 1523 1527 1532 1529 1528 1529 1531 1533 1534 1535 1536 1536 1537 1537 1537 1538 1538 1538 1538 1538 1538 1538 1538 1538 1538 1539 1539 1539 1539 1539 1539 1539 1539 1539
1500 1501 1504 1504 1516 1528 1524 1516 1515 1514 1514 1516 1517 1518 1520 1522 1524 1525 1526 1527 1529 1531 1532 1533 1535 1535 1536 1537 1537 1538 1538 1538 1538 1538 1538 1538 1538 1538 1538 1538 1539 1539 1539 1539 1539 1539 1539 1539 1540
1500 1501 1503 1508 1519 1524 1518 1512 1512 1513 1514 1515 1517 1518 1520 1522 1523 1524 1526 1527 1529 1531 1532 1533 1534 1535 1536 1536 1537 1537 1538 1538 1538 1538 1538 1538 1538 1538 1538 1538 1538 1539 1539 1539 1539 1539 1539 1540 1540
1500 1502 1504 1513 1517 1515 1512 1509 1510 1512 1514 1515 1516 1519 1521 1523 1523 1524 1526 1527 1529 1530 1532 1533 1534 1534 1535 1536 1536 1537 1537 1538 1538 1538 1538 1538 1538 1538 1538 1538 1538 1539 1539 1539 1539 1539 1539 1540 1540
1499 1501 1510 1518 1515 1511 1509 1508 1509 1511 1513 1514 1516 1518 1520 1522 1523 1524 1526 1527 1529 1530 1532 1533 1533 1534 1535 1536 1536 1537 1537 1537 1537 1538 1538 1538 1538 1538 1538 1538 1538 1538 1538 1538 1539 1539 1539 1540 1540
1499 1502 1516 1519 1514 1510 1508 1507 1508 1510 1513 1514 1516 1518 1519 1521 1522 1524 1526 1527 1529 1530 1531 1532 1533 1534 1535 1535 1536 1536 1537 1537 1537 1537 1537 1537 1537 1537 1537 1537 1538 1538 1538 1538 1538 1538 1539 1539 1540
1499 1506 1513 1513 1512 1509 1507 1506 1508 1509 1511 1513 1514 1517 1518 1520 1521 1523 1525 1527 1528 1530 1531 1532 1533 1533 1534 1535 1536 1536 1536 1536 1536 1537 1537 1537 1537 1537 1537 1537 1537 1537 1537 1537 1538 1538 1538 1539 1539
1497 1504 1510 1512 1510 1508 1505 1505 1506 1508 1510 1512 1514 1515 1516 1518 1520 1522 1525 1526 1528 1529 1530 1531 1532 1533 1533 1534 1535 1535 1535 1536 1536 1536 1536 1536 1536 1536 1536 1536 1537 1537 1537 1537 1537 1538 1538 1538 1539
1497 1507 1511 1508 1507 1504 1503 1505 1506 1507 1509 1510 1512 1513 1514 1516 1518 1521 1523 1525 1526 1528 1529 1530 1531 1532 1533 1533 1534 1534 1535 1535 1535 1535 1535 1535 1536 1536 1536 1536 1536 1536 1536 1536 1537 1537 1537 1538 1538
1496 1506 1503 1500 1500 1501 1502 1503 1505 1507 1508 1510 1510 1511 1512 1515 1516 1518 1520 1522 1523 1525 1527 1529 1530 1531 1532 1533 1533 1534 1534 1534 1535 1535 1535 1535 1535 1535 1535 1535 1535 1535 1535 1536 1536 1536 1536 1537 1537
1496 1500 1498 1498 1498 1499 1501 1503 1504 1505 1508 1506 1506 1508 1510 1513 1515 1516 1518 1520 1522 1524 1526 1527 1529 1530 1531 1531 1532 1533 1533 1534 1534 1534 1534 1534 1534 1534 1534 1534 1534 1534 1535 1535 1535 1535 1535 1536 1536
1496 1497 1496 1497 1498 1499 1500 1501 1503 1503 1504 1504 1505 1507 1508 1510 1512 1514 1516 1518 1521 1522 1524 1526 1527 1529 1530 1531 1531 1532 1532 1532 1533 1533 1533 1533 1533 1533 1533 1533 1533 1533 1533 1534 1534 1534 1534 1535 1535
1495 1496 1496 1496 1497 1498 1499 1500 1501 1502 1503 1503 1504 1505 1507 1508 1510 1513 1515 1518 1519 1521 1523 1524 1526 1527 1528 1529 1530 1531 1531 1532 1532 1532 1532 1532 1532 1532 1532 1532 1532 1532 1532 1532 1533 1533 1533 1533 1533
1493 1494 1495 1496 1496 1497 1499 1500 1501 1499 1501 1501 1502 1503 1505 1507 1509 1511 1513 1515 1517 1519 1521 1523 1524 1525 1526 1527 1528 1529 1530 1530 1531 1531 1531 1531 1531 1531 1531 1531 1531 1531 1531 1531 1531 1531 1531 1532 1532
1492 1495 1496 1495 1496 1497 1498 1500 1498 1497 1498 1499 1500 1502 1503 1505 1507 1508 1510 1512 1514 1517 1519 1521 1522 1523 1525 1526 1527 1528 1528 1529 1529 1530 1530 1530 1530 1530 1530 1529 1530 1529 1529 1529 1529 1530 1530 1530 1530
1493 1497 1499 1495 1495 1496 1500 1498 1494 1494 1495 1496 1498 1499 1501 1503 1504 1506 1508 1510 1512 1515 1516 1518 1520 1521 1522 1524 1525 1526 1526 1527 1528 1528 1528 1528 1528 1528 1528 1528 1528 1528 1527 1528 1528 1528 1528 1528 1528
1497 1500 1498 1495 1494 1495 1498 1496 1492 1493 1493 1494 1495 1496 1498 1500 1502 1503 1506 1508 1510 1512 1514 1516 1517 1519 1520 1521 1522 1523 1524 1525 1526 1526 1526 1526 1527 1527 1527 1526 1526 1526 1526 1526 1526 1526 1526 1526 1526
1498 1500 1497 1496 1494 1496 1498 1495 1491 1492 1492 1492 1493 1494 1495 1496 1498 1500 1503 1505 1507 1509 1511 1513 1515 1516 1517 1519 1520 1521 1522 1523 1524 1524 1524 1525 1525 1525 1525 1525 1525 1525 1524 1524 1524 1524 1524 1524 1524
1491 1495 1494 1493 1492 1495 1495 1492 1489 1489 1490 1490 1490 1491 1491 1493 1495 1498 1500 1502 1504 1506 1508 1509 1511 1513 1514 1515 1516 1517 1518 1520 1521 1522 1522 1522 1522 1523 1523 1523 1522 1523 1522 1522 1522 1522 1522 1521 1522
1491 1492 1493 1493 1493 1494 1495 1491 1486 1485 1485 1485 1485 1486 1487 1489 1491 1493 1496 1497 1499 1501 1504 1506 1508 1509 1511 1513 1513 1515 1516 1517 1519 1519 1520 1520 1520 1520 1520 1521 1520 1521 1521 1520 1520 1520 1519 1519 1519
1490 1491 1491 1493 1494 1494 1495 1489 1483 1480 1480 1480 1480 1481 1482 1484 1486 1488 1490 1493 1495 1497 1499 1501 1504 1506 1508 1509 1511 1512 1514 1515 1516 1516 1517 1518 1518 1518 1518 1518 1518 1518 1518 1518 1518 1518 1518 1517 1518
1488 1487 1489 1491 1496 1498 1496 1494 1479 1478 1477 1476 1476 1476 1477 1479 1481 1483 1485 1488 1490 1492 1495 1498 1500 1503 1504 1506 1507 1509 1510 1511 1512 1514 1514 1515 1515 1515 1516 1516 1516 1516 1516 1516 1516 1516 1515 1515 1515
1485 1485 1488 1490 1494 1498 1498 1498 1478 1476 1475 1472 1471 1471 1471 1473 1475 1477 1480 1482 1485 1488 1491 1494 1497 1499 1501 1503 1504 1506 1507 1509 1510 1511 1512 1512 1513 1513 1513 1513 1513 1513 1513 1513 1513 1513 1513 1513 1513
1484 1487 1491 1495 1498 1498 1493 1497 1478 1475 1469 1466 1465 1466 1467 1469 1471 1473 1476 1479 1482 1484 1487 1490 1492 1495 1497 1499 1501 1502 1504 1505 1507 1508 1509 1509 1510 1510 1510 1510 1510 1510 1510 1510 1510 1510 1510 1510 1510
1483 1489 1494 1496 1499 1491 1489 1488 1474 1465 1463 1462 1461 1462 1463 1465 1467 1469 1471 1474 1476 1479 1482 1485 1488 1490 1493 1495 1497 1499 1501 1502 1503 1505 1506 1506 1507 1507 1507 1507 1507 1507 1507 1507 1507 1507 1507 1507 1507
1483 1483 1490 1494 1495 1491 1490 1486 1470 1463 1461 1460 1459 1459 1460 1461 1463 1465 1467 1469 1472 1475 1478 1481 1484 1486 1489 1491 1493 1496 1498 1499 1500 1502 1503 1504 1504 1504 1504 1504 1504 1504 1504 1504 1504 1504 1503 1503 1503
1482 1485 1484 1492 1495 1495 1487 1481 1469 1461 1460 1459 1458 1458 1458 1459 1460 1462 1464 1466 1468 1471 1474 1477 1480 1483 1485 1488 1490 1492 1494 1496 1497 1498 1500 1500 1501 1501 1501 1501 1501 1501 1501 1500 1500 1500 1500 1500 1499
1477 1481 1488 1489 1490 1487 1479 1477 1468 1460 1459 1459 1458 1457 1457 1457 1458 1460 1461 1463 1466 1468 1471 1474 1477 1479 1482 1484 1487 1489 1490 1492 1494 1495 1496 1496 1497 1498 1498 1498 1498 1497 1497 1497 1496 1496 1496 1496 1495
1479 1481 1482 1487 1487 1486 1484 1470 1459 1457 1456 1457 1457 1456 1456 1456 1457 1458 1460 1462 1464 1466 1469 1471 1474 1476 1479 1481 1483 1485 1487 1489 1490 1491 1492 1493 1493 1494 1494 1494 1494 1493 1493 1493 1492 1492 1492 1491 1491
1473 1474 1479 1483 1484 1487 1484 1471 1456 1456 1455 1455 1456 1455 1455 1455 1456 1457 1458 1460 1462 1464 1466 1469 1471 1473 1475 1477 1480 1482 1484 1485 1486 1487 1488 1489 1489 1490 1490 1490 1490 1489 1489 1489 1489 1488 1488 1487 1487